Regional Weather Roundup
Issued by NWS Albany, NY

Home | Current Version | Previous Version | Text Only | Print | Product List | Glossary On
Versions: 1 2 3 4 5 6 7 8 9 10 11 12 13 14 15 16 17 18 19 20 21 22 23 24 25 26 27 28 29 30 31 32 33 34 35 36 37 38 39 40 41 42 43 44 45 46 47 48 49 50
000
ASUS41 KALY 030810
RWRALY

NEW YORK STATE HOURLY WEATHER ROUNDUP
NATIONAL WEATHER SERVICE ALBANY NY
400 AM EDT WED JUN 03 2015

NOTE: "FAIR" INDICATES FEW OR NO CLOUDS BELOW 12,000 FEET WITH NO
SIGNIFICANT WEATHER AND/OR NO OBSTRUCTIONS TO VISIBILITY.

NYZ032-033-038>043-046>054-057>066-NYZ062>081-030900-
EAST


CITY           SKY/WX    TMP DP  RH WIND       PRES   REMARKS
ALBANY         MOCLDY    51  44  77 N6        30.23R
GLENS FALLS    PTCLDY    46  41  82 CALM      30.24R
POUGHKEEPSIE   CLOUDY    51  48  89 NE5       30.19S
MONTGOMERY     HAZE      49  32  52 CALM      30.18S VSB 1/2
WHITE PLAINS   CLOUDY    50  48  93 CALM      30.17S
ISLIP          CLOUDY    50  47  89 NE6       30.16S
NEW YORK CITY  CLOUDY    53  49  86 E6        30.18R
CENTRAL PARK   CLOUDY    53  51  93 E6        30.21R
$$

NYZ005>009-017-018-044>046-055-056-030900-
CENTRAL


CITY           SKY/WX    TMP DP  RH WIND       PRES   REMARKS
FULTON         CLEAR     41  39  93 CALM      30.22S
SYRACUSE       PTCLDY    43  43 100 CALM      30.21F
ROME           CLEAR     42  41  96 E3        30.23R
ELMIRA         FOG       45  45 100 W3        30.20S VSB 1/4
BINGHAMTON     PTCLDY    46  46 100 CALM      30.19R
MONTICELLO     CLOUDY    48  48 100 CALM      30.19S VSB 1/4
$$

NYZ026>034-041>043-030900-
NORTH


CITY           SKY/WX    TMP DP  RH WIND       PRES   REMARKS
WATERTOWN      CLEAR     40  39  97 NE5       30.23R
FORT DRUM      NOT AVBL
MASSENA        FOG       39  38  96 CALM      30.26S VSB 1/4
SARANAC LAKE   FOG       34  34 100 CALM      30.21S VSB 1/4
PLATTSBURGH    CLEAR     40  39  97 N3        30.25S
$$

NYZ001>004-010>016-019>021-030900-
WEST


CITY           SKY/WX    TMP DP  RH WIND       PRES   REMARKS
BUFFALO        CLEAR     47  43  86 NE3       30.19F
JAMESTOWN      CLEAR     46  37  71 SE3       30.18S
WELLSVILLE     FOG       40  39  97 CALM      30.20S VSB<1/4
ROCHESTER      CLEAR     43  41  93 SW3       30.22S
PENN YAN       FOG       46  45  96 CALM      30.21S VSB<1/4
$$

             KEY
       WCI = WIND CHILL INDEX
       VSB = VISIBILITY
       HX  = HEAT INDEX
$$


USA.gov is the U.S. government's official web portal to all federal, state and local government web resources and services.